This is the latest recevied weather packets stored in our database for station/object EA3FHP. If no packets are shown the sender has not sent any weather packets the latest 10 day(s).
| Time | Temp. | Humidity | Pressure | Rain* | Wind** | Luminosity | Snow |
|---|---|---|---|---|---|---|---|
| 1777401603 | 16.11° C | 61% | 1013.1 hPa | 0 mm | - | - | - |
| 1777401003 | 16.67° C | 58% | 1013.3 hPa | 0 mm | - | - | - |
| 1777400403 | 16.67° C | 58% | 1013.1 hPa | 0 mm | - | - | - |
| 1777399803 | 17.78° C | 58% | 1013.3 hPa | 0 mm | - | - | - |
| 1777399203 | 17.78° C | 54% | 1013.4 hPa | 0 mm | - | - | - |
| 1777398603 | 18.33° C | 54% | 1013.3 hPa | 0 mm | - | - | - |
| 1777398003 | 19.44° C | 56% | 1013.5 hPa | 0 mm | - | - | - |
| 1777397403 | 20.56° C | 53% | 1013.4 hPa | 0 mm | - | - | - |
| 1777396803 | 20° C | 52% | 1013.3 hPa | 0 mm | - | - | - |
| 1777396203 | 21.11° C | 49% | 1013.4 hPa | 0 mm | - | - | - |
| 1777395603 | 21.11° C | 49% | 1013.4 hPa | 0 mm | - | - | - |
| 1777395003 | 21.11° C | 47% | 1013.4 hPa | 0 mm | - | - | - |
| 1777394403 | 21.67° C | 46% | 1013.4 hPa | 0 mm | - | - | - |
| 1777393804 | 21.67° C | 47% | 1013.4 hPa | 0 mm | - | - | - |
| 1777393204 | 21.67° C | 45% | 1013.1 hPa | 0 mm | - | - | - |
| 1777392604 | 23.33° C | 44% | 1013.2 hPa | 0 mm | - | - | - |
| 1777392004 | 23.33° C | 40% | 1013.3 hPa | 0 mm | - | - | - |
| 1777391403 | 23.33° C | 42% | 1013.2 hPa | 0 mm | - | - | - |
| 1777390803 | 23.33° C | 41% | 1013.1 hPa | 0 mm | - | - | - |
| 1777390203 | 23.89° C | 42% | 1013.1 hPa | 0 mm | - | - | - |
| 1777389603 | 24.44° C | 41% | 1013.3 hPa | 0 mm | - | - | - |
| 1777389003 | 24.44° C | 41% | 1013.3 hPa | 0 mm | - | - | - |
| 1777388404 | 24.44° C | 41% | 1013.1 hPa | 0 mm | - | - | - |
| 1777387804 | 24.44° C | 40% | 1013.3 hPa | 0 mm | - | - | - |
| 1777387203 | 25° C | 39% | 1013.5 hPa | 0 mm | - | - | - |
* Rain latest hour (hover to see other rain measurements)
** Current wind speed in m/s (hover to see current wind gust speed)